Santa Barbara, CA

6:53 AM PDT on April 27, 2017 (GMT -0700)
Santa Barbara Municipal

Weather History for KSBA - October, 2010

Change the Weather History Date:

Monday, October 11, 2010

  Actual Average Record
Temperature  
Mean Temperature 65 °F 62 °F  
Max Temperature 72 °F 72 °F 90 °F (2015)
Min Temperature 57 °F 52 °F 42 °F (1990)
Degree Days  
Heating Degree Days 0 3  
Month to date heating degree days 25 32  
Since 1 July heating degree days 305 127  
Cooling Degree Days 0 1  
Month to date cooling degree days 10 11  
Year to date cooling degree days 93 182  
Growing Degree Days 14 (Base 50)    
Moisture  
Dew Point 60 °F    
Average Humidity 84    
Maximum Humidity 100    
Minimum Humidity 68    
Precipitation  
Precipitation 0.00 in 0.01 in 0.20 in (1963)
Month to date precipitation 0.71 0.20  
Year to date precipitation 14.45 12.66  
Since 1 July precipitation 0.72  
Sea Level Pressure  
Sea Level Pressure 29.89 in    
Wind  
Wind Speed 4 mph (SE)    
Max Wind Speed 9 mph    
Max Gust Speed 12 mph    
Visibility 5 miles    
Events Fog    
T = Trace of Precipitation, MM = Missing Value Source: NWS Daily Summary

Daily Weather History Graph

Daily Weather History Graph

Search for Another Location

Airport or City:

Trip Planner

Search our weather history database for the weather conditions in past years. The results will help you decide how hot, cold, wet, or windy it might be!

Date:

Astronomy

Oct. 11, 2010 Rise Set
Actual Time 7:01 AM PDT 6:29 PM PDT
Civil Twilight 6:36 AM PDT 6:55 PM PDT
Nautical Twilight 6:07 AM PDT 7:24 PM PDT
Astronomical Twilight 5:38 AM PDT 7:53 PM PDT
Moon 11:29 AM PDT (10/11) 9:26 PM PDT (10/11)
Length of Visible Light 12h 18m
Length of Day
11h 28m
Waxing Crescent, 20% of the Moon is Illuminated
Oct 11
Waxing Crescent
Oct 14
First Quarter
Oct 22
Full
Oct 30
Last Quarter
Nov 5
New

Hourly Weather History & Observations

Time (PDT) Temp. Dew Point Humidity Pressure Visibility Wind Dir Wind Speed Gust Speed Precip Events Conditions
12:53 AM 61.0 °F 57.9 °F 90% 29.84 in 9.0 mi Calm Calm - N/A   Clear
1:53 AM 60.1 °F 57.0 °F 90% 29.83 in 10.0 mi ENE 3.5 mph - N/A   Clear
2:53 AM 59.0 °F 57.2 °F 94% 29.83 in 10.0 mi Calm Calm - N/A   Clear
3:53 AM 57.9 °F 55.9 °F 93% 29.84 in 10.0 mi Calm Calm - N/A   Clear
4:53 AM 57.9 °F 55.9 °F 93% 29.85 in 10.0 mi Calm Calm - N/A   Clear
5:53 AM 57.9 °F 53.1 °F 84% 29.87 in 10.0 mi Calm Calm - N/A   Clear
6:53 AM 57.9 °F 55.9 °F 93% 29.88 in 10.0 mi Calm Calm - N/A   Clear
7:53 AM 60.1 °F 55.9 °F 86% 29.90 in 10.0 mi Calm Calm - N/A   Clear
8:53 AM 69.1 °F 60.1 °F 73% 29.91 in 10.0 mi ESE 3.5 mph - N/A   Clear
9:53 AM 70.0 °F 61.0 °F 73% 29.92 in 10.0 mi SSE 5.8 mph - 0.01 in   Clear
10:53 AM 72.0 °F 61.0 °F 68% 29.91 in 10.0 mi SSE 9.2 mph - N/A   Clear
11:53 AM 71.1 °F 62.1 °F 73% 29.91 in 10.0 mi SSE 6.9 mph - N/A   Clear
12:53 PM 66.9 °F 62.1 °F 84% 29.90 in 8.0 mi SSE 9.2 mph - N/A   Clear
1:04 PM 66.2 °F 62.6 °F 88% 29.90 in 10.0 mi South 9.2 mph - N/A   Partly Cloudy
1:16 PM 66.2 °F 62.6 °F 88% 29.90 in 10.0 mi SSE 9.2 mph - N/A   Partly Cloudy
1:37 PM 64.4 °F 62.6 °F 94% 29.89 in 8.0 mi South 6.9 mph - N/A   Mostly Cloudy
1:53 PM 64.0 °F 62.1 °F 93% 29.89 in 1.0 mi SSE 6.9 mph - N/A   Overcast
2:53 PM 64.0 °F 62.1 °F 93% 29.88 in 3.0 mi Calm Calm - N/A   Mostly Cloudy
3:18 PM 64.4 °F 62.6 °F 94% 29.87 in 6.0 mi SSE 6.9 mph - N/A   Scattered Clouds
3:53 PM 64.9 °F 62.1 °F 90% 29.87 in 5.0 mi Variable 4.6 mph - N/A   Mostly Cloudy
4:53 PM 64.0 °F 62.1 °F 93% 29.87 in 5.0 mi SSE 4.6 mph - N/A   Mostly Cloudy
4:55 PM 64.4 °F 62.6 °F 94% 29.87 in 5.0 mi SSE 3.5 mph - N/A   Scattered Clouds
5:12 PM 64.4 °F 60.8 °F 88% 29.87 in 1.8 mi SSE 5.8 mph - N/A   Mostly Cloudy
5:25 PM 62.6 °F 60.8 °F 94% 29.87 in 2.0 mi SSE 3.5 mph - N/A   Overcast
5:53 PM 63.0 °F 61.0 °F 93% 29.88 in 1.0 mi Calm Calm - N/A   Overcast
6:53 PM 62.1 °F 61.0 °F 96% 29.89 in 0.5 mi Calm Calm - N/A Fog Fog
7:21 PM 60.8 °F 60.8 °F 100% 29.89 in 0.5 mi Calm Calm - N/A Fog Fog
7:53 PM 61.0 °F 61.0 °F 100% 29.90 in 0.5 mi Calm Calm - N/A Fog Fog
8:53 PM 61.0 °F 61.0 °F 100% 29.91 in 0.2 mi East 3.5 mph - N/A Fog Fog
9:53 PM 61.0 °F 61.0 °F 100% 29.94 in 0.5 mi SE 4.6 mph - N/A Fog Fog
10:36 PM 60.8 °F 60.8 °F 100% 29.94 in 1.0 mi East 5.8 mph - N/A   Overcast
10:46 PM 60.8 °F 60.8 °F 100% 29.94 in 0.8 mi ESE 6.9 mph - N/A   Overcast
10:53 PM 61.0 °F 61.0 °F 100% 29.94 in 0.8 mi ESE 6.9 mph - N/A   Overcast
11:02 PM 60.8 °F 60.8 °F 100% 29.94 in 1.0 mi ESE 6.9 mph - N/A   Overcast
11:50 PM 62.6 °F 60.8 °F 94% 29.95 in 2.0 mi East 6.9 mph - N/A   Overcast
11:53 PM 61.0 °F 61.0 °F 100% 29.95 in 1.8 mi East 6.9 mph - N/A   Overcast